This is the latest recevied weather packets stored in our database for station/object ZR6G-15. If no packets are shown the sender has not sent any weather packets the latest 10 day(s).
| Time | Temp. | Humidity | Pressure | Rain* | Wind** | Luminosity | Snow |
|---|---|---|---|---|---|---|---|
| 1777448745 | 15° C | 19% | 1019.2 hPa | - | - | - | - |
| 1777448141 | 13.89° C | 19% | 1019.8 hPa | - | - | - | - |
| 1777447536 | 13.89° C | 20% | 1020.1 hPa | - | - | - | - |
| 1777446932 | 12.78° C | 19% | 1020.2 hPa | - | - | - | - |
| 1777446327 | 12.78° C | 19% | 1020.3 hPa | - | - | - | - |
| 1777445722 | 12.78° C | 19% | 1020.5 hPa | - | - | - | - |
| 1777445117 | 11.67° C | 19% | 1020.7 hPa | - | - | - | - |
| 1777444513 | 11.67° C | 21% | 1020.4 hPa | - | - | - | - |
| 1777443908 | 10.56° C | 20% | 1020.6 hPa | - | - | - | - |
| 1777443304 | 10.56° C | 19% | 1020.7 hPa | - | - | - | - |
| 1777442699 | 10° C | 21% | 1020.7 hPa | - | - | - | - |
| 1777442094 | 10° C | 22% | 1020.8 hPa | - | - | - | - |
| 1777441490 | 10° C | 21% | 1021.2 hPa | - | - | - | - |
| 1777440885 | 8.89° C | 21% | 1021.3 hPa | - | - | - | - |
| 1777440280 | 8.89° C | 23% | 1021.1 hPa | - | - | - | - |
| 1777439675 | 8.89° C | 22% | 1021.2 hPa | - | - | - | - |
| 1777439071 | 8.89° C | 29% | 1021.1 hPa | - | - | - | - |
| 1777438466 | 7.78° C | 27% | 1021.1 hPa | - | - | - | - |
| 1777437861 | 8.89° C | 26% | 1021 hPa | - | - | - | - |
| 1777437256 | 8.89° C | 27% | 1021 hPa | - | - | - | - |
| 1777436651 | 8.89° C | 30% | 1020.7 hPa | - | - | - | - |
| 1777436047 | 8.89° C | 28% | 1020.6 hPa | - | - | - | - |
| 1777435442 | 8.89° C | 26% | 1020.6 hPa | - | - | - | - |
| 1777434837 | 8.89° C | 29% | 1020.7 hPa | - | - | - | - |
| 1777434232 | 8.89° C | 33% | 1020.7 hPa | - | - | - | - |
* Rain since midnight (hover to see other rain measurements)
** Current wind speed in m/s (hover to see current wind gust speed)